"read_dt","SO2 (ppb)","flags","PMT voltage (V)","lamp voltage (V)","lamp intensity (Hz)","internal temp (C)","react chamber temp (C)","sample flow (l/min)","pres (mmHg)","SO2 bkg (ppb)","SO2 coefficient"
2014-05-25 00:00:00,1896E-3,5C000000,-0724,0850,12131,030.5,045.6,0.483,734.6,01.18,0.508
2014-05-25 00:01:00,1849E-3,5C000000,-0724,0850,12106,030.5,045.6,0.483,734.6,01.18,0.508
2014-05-25 00:02:00,1882E-3,5C000000,-0724,0851,12033,030.5,045.6,0.483,734.7,01.18,0.508
2014-05-25 00:03:00,1873E-3,5C000000,-0724,0851,12044,030.5,045.6,0.483,734.7,01.18,0.508
2014-05-25 00:04:00,1879E-3,5C000000,-0724,0851,11756,030.5,045.6,0.483,734.6,01.18,0.508
2014-05-25 00:05:00,1926E-3,5C000000,-0724,0851,12038,030.5,045.6,0.483,734.7,01.18,0.508
2014-05-25 00:06:00,1858E-3,5C000000,-0724,0851,11923,030.5,045.6,0.483,734.7,01.18,0.508
2014-05-25 00:07:00,1813E-3,5C000000,-0724,0851,12047,030.5,045.6,0.483,734.7,01.18,0.508
2014-05-25 00:08:00,1804E-3,5C000000,-0724,0850,11928,030.5,045.6,0.483,734.7,01.18,0.508
2014-05-25 00:09:00,1922E-3,5C000000,-0724,0851,11994,030.5,045.6,0.483,734.7,01.18,0.508
2014-05-25 00:10:00,1886E-3,5C000000,-0724,0851,12030,030.5,045.6,0.483,734.7,01.18,0.508
2014-05-25 00:11:00,1959E-3,5C000000,-0724,0850,11981,030.5,045.6,0.483,734.7,01.18,0.508
2014-05-25 00:12:00,1761E-3,5C000000,-0724,0850,12001,030.5,045.6,0.483,734.7,01.18,0.508
2014-05-25 00:13:00,1891E-3,5C000000,-0724,0851,11980,030.5,045.6,0.483,734.7,01.18,0.508
2014-05-25 00:14:00,1773E-3,5C000000,-0724,0850,11849,030.6,045.6,0.483,734.7,01.18,0.508
2014-05-25 00:15:00,1836E-3,5C000000,-0724,0851,12015,030.6,045.6,0.483,734.7,01.18,0.508
2014-05-25 00:16:00,1807E-3,5C000000,-0724,0850,11874,030.6,045.6,0.483,734.7,01.18,0.508
2014-05-25 00:17:00,1865E-3,5C000000,-0724,0850,11929,030.6,045.6,0.483,734.7,01.18,0.508
2014-05-25 00:18:00,1740E-3,5C000000,-0724,0850,12014,030.6,045.6,0.483,734.7,01.18,0.508
2014-05-25 00:19:00,1895E-3,5C000000,-0724,0850,11951,030.6,045.6,0.483,734.8,01.18,0.508
2014-05-25 00:20:00,1950E-3,5C000000,-0724,0851,11848,030.6,045.6,0.483,734.8,01.18,0.508
2014-05-25 00:21:00,1834E-3,5C000000,-0724,0850,12022,030.6,045.6,0.483,734.8,01.18,0.508
2014-05-25 00:22:00,1822E-3,5C000000,-0724,0851,11708,030.6,045.6,0.483,734.8,01.18,0.508
2014-05-25 00:23:00,1829E-3,5C000000,-0724,0850,11963,030.6,045.6,0.483,734.8,01.18,0.508
2014-05-25 00:24:00,1845E-3,5C000000,-0724,0850,11833,030.6,045.6,0.483,734.8,01.18,0.508
2014-05-25 00:25:00,1972E-3,5C000000,-0724,0851,12099,030.6,045.6,0.483,734.8,01.18,0.508
2014-05-25 00:26:00,1839E-3,5C000000,-0724,0851,11876,030.6,045.6,0.483,734.9,01.18,0.508
2014-05-25 00:27:00,1879E-3,5C000000,-0724,0851,12076,030.6,045.6,0.483,734.9,01.18,0.508
2014-05-25 00:28:00,1931E-3,5C000000,-0724,0852,12042,030.6,045.6,0.483,734.9,01.18,0.508
2014-05-25 00:29:00,1760E-3,5C000000,-0724,0850,11966,030.6,045.6,0.483,734.9,01.18,0.508
2014-05-25 00:30:00,1772E-3,5C000000,-0724,0850,12113,030.6,045.6,0.483,734.9,01.18,0.508
2014-05-25 00:31:00,1813E-3,5C000000,-0724,0851,12146,030.6,045.6,0.483,734.9,01.18,0.508
2014-05-25 00:32:00,1899E-3,5C000000,-0724,0851,11893,030.6,045.6,0.483,734.9,01.18,0.508
2014-05-25 00:33:00,1899E-3,5C000000,-0724,0851,11903,030.6,045.6,0.483,734.9,01.18,0.508
2014-05-25 00:34:00,1888E-3,5C000000,-0724,0851,11900,030.6,045.6,0.483,735.0,01.18,0.508
2014-05-25 00:35:00,1642E-3,5C000000,-0724,0851,11923,030.6,045.6,0.483,735.0,01.18,0.508
2014-05-25 00:36:00,1740E-3,5C000000,-0724,0851,12088,030.6,045.6,0.483,735.0,01.18,0.508
2014-05-25 00:37:00,1851E-3,5C000000,-0724,0852,11949,030.6,045.6,0.483,734.9,01.18,0.508
2014-05-25 00:38:00,1830E-3,5C000000,-0724,0851,11995,030.7,045.6,0.483,734.9,01.18,0.508
2014-05-25 00:39:00,1704E-3,5C000000,-0724,0850,12006,030.6,045.6,0.483,735.0,01.18,0.508
2014-05-25 00:40:00,1706E-3,5C000000,-0724,0851,11710,030.6,045.6,0.483,735.0,01.18,0.508
2014-05-25 00:41:00,1784E-3,5C000000,-0724,0851,11886,030.7,045.6,0.483,735.0,01.18,0.508
2014-05-25 00:42:00,1883E-3,5C000000,-0724,0851,11815,030.7,045.6,0.483,735.0,01.18,0.508
2014-05-25 00:43:00,1768E-3,5C000000,-0724,0851,12042,030.7,045.6,0.483,735.0,01.18,0.508
2014-05-25 00:44:00,1880E-3,5C000000,-0724,0851,12011,030.7,045.6,0.483,735.1,01.18,0.508
2014-05-25 00:45:00,1795E-3,5C000000,-0724,0851,11870,030.7,045.6,0.483,735.1,01.18,0.508
2014-05-25 00:46:00,1707E-3,5C000000,-0724,0851,11787,030.7,045.6,0.483,735.1,01.18,0.508
2014-05-25 00:47:00,1671E-3,5C000000,-0724,0850,11854,030.7,045.6,0.483,735.1,01.18,0.508
2014-05-25 00:48:00,1688E-3,5C000000,-0724,0851,11930,030.7,045.6,0.483,735.0,01.18,0.508
2014-05-25 00:49:00,1888E-3,5C000000,-0724,0851,11970,030.7,045.6,0.483,735.0,01.18,0.508
2014-05-25 00:50:00,1846E-3,5C000000,-0724,0851,11887,030.7,045.6,0.483,735.0,01.18,0.508
2014-05-25 00:51:00,1850E-3,5C000000,-0724,0851,11902,030.7,045.6,0.483,734.9,01.18,0.508
2014-05-25 00:52:00,1842E-3,5C000000,-0724,0852,11949,030.7,045.6,0.483,735.0,01.18,0.508
2014-05-25 00:53:00,1892E-3,5C000000,-0724,0852,11908,030.7,045.6,0.483,734.9,01.18,0.508
2014-05-25 00:54:00,1850E-3,5C000000,-0724,0851,12183,030.7,045.6,0.483,734.9,01.18,0.508
2014-05-25 00:55:00,1890E-3,5C000000,-0724,0850,12034,030.7,045.6,0.483,734.8,01.18,0.508
2014-05-25 00:56:00,1742E-3,5C000000,-0724,0851,11994,030.7,045.6,0.483,734.8,01.18,0.508
2014-05-25 00:57:00,1883E-3,5C000000,-0724,0851,12048,030.7,045.6,0.483,734.8,01.18,0.508
2014-05-25 00:58:00,1872E-3,5C000000,-0724,0851,11987,030.7,045.6,0.483,734.8,01.18,0.508
2014-05-25 00:59:00,1732E-3,5C000000,-0724,0850,12001,030.7,045.6,0.483,734.8,01.18,0.508
2014-05-25 01:00:00,1771E-3,5C000000,-0724,0850,12072,030.7,045.6,0.483,734.9,01.18,0.508
2014-05-25 01:01:00,1698E-3,5C000000,-0724,0851,11839,030.7,045.6,0.483,735.0,01.18,0.508
2014-05-25 01:02:00,1725E-3,5C000000,-0724,0851,12041,030.7,045.6,0.483,735.0,01.18,0.508
2014-05-25 01:03:00,1821E-3,5C000000,-0724,0852,12100,030.7,045.6,0.483,735.0,01.18,0.508
2014-05-25 01:04:00,1937E-3,5C000000,-0724,0850,11924,030.7,045.6,0.483,735.0,01.18,0.508
2014-05-25 01:05:00,1854E-3,5C000000,-0724,0851,12100,030.7,045.6,0.483,735.1,01.18,0.508
2014-05-25 01:06:00,1832E-3,5C000000,-0724,0850,11945,030.7,045.6,0.483,735.1,01.18,0.508
2014-05-25 01:07:00,1852E-3,5C000000,-0724,0850,12083,030.7,045.6,0.483,735.1,01.18,0.508
2014-05-25 01:08:00,1782E-3,5C000000,-0724,0851,12035,030.7,045.6,0.483,735.1,01.18,0.508
2014-05-25 01:09:00,1804E-3,5C000000,-0724,0852,12018,030.7,045.6,0.483,735.0,01.18,0.508
2014-05-25 01:10:00,1937E-3,5C000000,-0724,0852,11986,030.7,045.6,0.483,734.9,01.18,0.508
2014-05-25 01:11:00,1859E-3,5C000000,-0724,0850,11985,030.7,045.6,0.483,735.0,01.18,0.508
2014-05-25 01:12:00,1918E-3,5C000000,-0724,0851,11952,030.7,045.6,0.483,735.0,01.18,0.508
2014-05-25 01:13:00,1790E-3,5C000000,-0724,0851,11954,030.7,045.6,0.483,735.0,01.18,0.508
2014-05-25 01:14:00,1831E-3,5C000000,-0724,0851,12085,030.7,045.6,0.483,735.0,01.18,0.508
2014-05-25 01:15:00,1906E-3,5C000000,-0724,0851,12092,030.7,045.6,0.483,735.0,01.18,0.508
2014-05-25 01:16:00,1662E-3,5C000000,-0724,0851,11982,030.7,045.6,0.483,735.0,01.18,0.508
2014-05-25 01:17:00,1717E-3,5C000000,-0724,0851,12025,030.7,045.6,0.483,734.9,01.18,0.508
2014-05-25 01:18:00,1861E-3,5C000000,-0724,0850,12031,030.7,045.6,0.483,734.8,01.18,0.508
2014-05-25 01:19:00,1755E-3,5C000000,-0724,0850,11985,030.7,045.6,0.483,734.8,01.18,0.508
2014-05-25 01:20:00,1988E-3,5C000000,-0724,0851,12033,030.7,045.6,0.483,734.8,01.18,0.508
2014-05-25 01:21:00,1923E-3,5C000000,-0724,0849,11904,030.7,045.6,0.483,734.8,01.18,0.508
2014-05-25 01:22:00,1870E-3,5C000000,-0724,0851,12198,030.7,045.6,0.483,734.7,01.18,0.508
2014-05-25 01:23:00,1928E-3,5C000000,-0724,0851,11853,030.7,045.6,0.482,734.6,01.18,0.508
2014-05-25 01:24:00,1887E-3,5C000000,-0724,0851,12102,030.7,045.6,0.483,734.5,01.18,0.508
2014-05-25 01:25:00,1828E-3,5C000000,-0724,0851,11897,030.7,045.6,0.483,734.5,01.18,0.508
2014-05-25 01:26:00,1833E-3,5C000000,-0724,0852,11851,030.7,045.6,0.482,734.6,01.18,0.508
2014-05-25 01:27:00,1761E-3,5C000000,-0724,0851,11844,030.7,045.6,0.483,734.6,01.18,0.508
2014-05-25 01:28:00,1888E-3,5C000000,-0724,0850,11693,030.7,045.6,0.483,734.6,01.18,0.508
2014-05-25 01:29:00,1818E-3,5C000000,-0724,0851,11942,030.7,045.6,0.483,734.7,01.18,0.508
2014-05-25 01:30:00,1832E-3,5C000000,-0724,0851,12027,030.7,045.6,0.483,734.7,01.18,0.508
2014-05-25 01:31:00,1894E-3,5C000000,-0724,0850,12126,030.7,045.6,0.483,734.6,01.18,0.508
2014-05-25 01:32:00,1835E-3,5C000000,-0724,0850,11772,030.7,045.6,0.483,734.5,01.18,0.508
2014-05-25 01:33:00,1745E-3,5C000000,-0724,0849,12100,030.7,045.6,0.483,734.5,01.18,0.508
2014-05-25 01:34:00,1777E-3,5C000000,-0724,0851,11997,030.7,045.6,0.483,734.4,01.18,0.508
2014-05-25 01:35:00,1879E-3,5C000000,-0724,0850,12080,030.7,045.6,0.483,734.4,01.18,0.508
2014-05-25 01:36:00,1755E-3,5C000000,-0724,0851,11868,030.7,045.6,0.482,734.3,01.18,0.508
2014-05-25 01:37:00,1946E-3,5C000000,-0724,0850,12121,030.7,045.6,0.483,734.1,01.19,0.508
2014-05-25 01:38:00,1751E-3,5C000000,-0724,0851,12095,030.7,045.6,0.483,734.1,01.19,0.508
2014-05-25 01:39:00,1819E-3,5C000000,-0724,0850,12149,030.7,045.6,0.482,734.0,01.19,0.508
2014-05-25 01:40:00,1851E-3,5C000000,-0724,0850,11897,030.7,045.6,0.483,734.0,01.19,0.508
2014-05-25 01:41:00,1842E-3,5C000000,-0724,0850,11992,030.7,045.6,0.483,733.9,01.19,0.508
2014-05-25 01:42:00,1835E-3,5C000000,-0724,0851,11802,030.7,045.6,0.482,733.9,01.19,0.508
2014-05-25 01:43:00,1896E-3,5C000000,-0724,0850,12052,030.7,045.6,0.482,734.0,01.19,0.508
2014-05-25 01:44:00,1830E-3,5C000000,-0724,0851,12038,030.7,045.6,0.483,734.2,01.18,0.508
2014-05-25 01:45:00,1976E-3,5C000000,-0724,0850,12027,030.7,045.6,0.483,734.2,01.18,0.508
2014-05-25 01:46:00,1855E-3,5C000000,-0724,0850,12071,030.7,045.6,0.482,734.3,01.18,0.508
2014-05-25 01:47:00,1947E-3,5C000000,-0724,0850,12036,030.7,045.6,0.483,734.3,01.18,0.508
2014-05-25 01:48:00,2129E-3,5C000000,-0724,0850,11950,030.7,045.6,0.483,734.3,01.18,0.508
2014-05-25 01:49:00,2267E-3,5C000000,-0724,0851,11962,030.7,045.6,0.483,734.3,01.18,0.508
2014-05-25 01:50:00,2225E-3,5C000000,-0724,0850,12029,030.7,045.6,0.482,734.3,01.18,0.508
2014-05-25 01:51:00,2099E-3,5C000000,-0724,0851,12056,030.7,045.6,0.483,734.3,01.18,0.508
2014-05-25 01:52:00,2368E-3,5C000000,-0724,0851,11881,030.7,045.6,0.483,734.3,01.18,0.508
2014-05-25 01:53:00,2080E-3,5C000000,-0724,0849,12080,030.7,045.6,0.482,734.4,01.18,0.508
2014-05-25 01:54:00,1930E-3,5C000000,-0724,0851,11744,030.7,045.6,0.483,734.3,01.18,0.508
2014-05-25 01:55:00,1796E-3,5C000000,-0724,0851,12041,030.8,045.6,0.483,734.3,01.18,0.508
2014-05-25 01:56:00,1934E-3,5C000000,-0724,0851,11974,030.7,045.6,0.483,734.3,01.18,0.508
2014-05-25 01:57:00,1909E-3,5C000000,-0724,0852,12155,030.7,045.6,0.482,734.3,01.18,0.508
2014-05-25 01:58:00,1810E-3,5C000000,-0724,0851,12018,030.7,045.6,0.483,734.4,01.18,0.508
2014-05-25 01:59:00,1969E-3,5C000000,-0724,0851,11795,030.7,045.6,0.483,734.4,01.18,0.508
2014-05-25 02:00:00,2044E-3,5C000000,-0724,0851,11899,030.8,045.6,0.482,734.4,01.18,0.508
2014-05-25 02:01:00,2131E-3,5C000000,-0724,0851,12116,030.7,045.6,0.483,734.4,01.18,0.508
2014-05-25 02:02:00,2133E-3,5C000000,-0724,0850,12006,030.8,045.6,0.483,734.4,01.18,0.508
2014-05-25 02:03:00,2032E-3,5C000000,-0724,0850,11857,030.8,045.6,0.483,734.4,01.18,0.508
2014-05-25 02:04:00,1989E-3,5C000000,-0724,0850,12017,030.8,045.6,0.482,734.5,01.18,0.508
2014-05-25 02:05:00,1886E-3,5C000000,-0724,0851,11973,030.8,045.6,0.483,734.5,01.18,0.508
2014-05-25 02:06:00,1936E-3,5C000000,-0724,0849,12058,030.8,045.6,0.483,734.5,01.18,0.508
2014-05-25 02:07:00,1837E-3,5C000000,-0724,0851,12026,030.8,045.6,0.482,734.5,01.18,0.508
2014-05-25 02:08:00,1801E-3,5C000000,-0724,0851,12024,030.8,045.6,0.483,734.6,01.18,0.508
2014-05-25 02:09:00,1874E-3,5C000000,-0724,0851,12011,030.8,045.6,0.483,734.6,01.18,0.508
2014-05-25 02:10:00,1898E-3,5C000000,-0724,0851,12042,030.8,045.6,0.482,734.6,01.18,0.508
2014-05-25 02:11:00,1955E-3,5C000000,-0724,0851,11676,030.8,045.6,0.483,734.5,01.18,0.508
2014-05-25 02:12:00,2035E-3,5C000000,-0724,0852,12101,030.8,045.6,0.483,734.6,01.18,0.508
2014-05-25 02:13:00,1969E-3,5C000000,-0724,0850,12076,030.8,045.6,0.483,734.6,01.18,0.508
2014-05-25 02:14:00,1959E-3,5C000000,-0724,0851,12175,030.8,045.6,0.482,734.6,01.18,0.508
2014-05-25 02:15:00,1820E-3,5C000000,-0724,0851,12072,030.8,045.6,0.483,734.6,01.18,0.508
2014-05-25 02:16:00,1889E-3,5C000000,-0724,0851,12015,030.9,045.6,0.483,734.6,01.18,0.508
2014-05-25 02:17:00,1939E-3,5C000000,-0724,0850,12261,030.8,045.6,0.482,734.6,01.18,0.508
2014-05-25 02:18:00,1800E-3,5C000000,-0724,0852,12059,030.9,045.6,0.483,734.6,01.18,0.508
2014-05-25 02:19:00,1895E-3,5C000000,-0724,0850,11993,030.8,045.6,0.483,734.6,01.18,0.508
2014-05-25 02:20:00,1947E-3,5C000000,-0724,0851,11914,030.9,045.6,0.482,734.7,01.18,0.508
2014-05-25 02:21:00,1881E-3,5C000000,-0724,0851,11987,030.9,045.6,0.483,734.6,01.18,0.508
2014-05-25 02:22:00,1838E-3,5C000000,-0724,0850,11871,030.9,045.6,0.482,734.7,01.18,0.508
2014-05-25 02:23:00,2052E-3,5C000000,-0724,0851,11996,030.9,045.6,0.482,734.7,01.18,0.508
2014-05-25 02:24:00,1923E-3,5C000000,-0724,0851,12184,030.9,045.6,0.483,734.7,01.18,0.508
2014-05-25 02:25:00,1765E-3,5C000000,-0724,0850,11900,030.9,045.6,0.483,734.7,01.18,0.508
2014-05-25 02:26:00,1827E-3,5C000000,-0724,0851,12096,030.9,045.6,0.482,734.7,01.18,0.508
2014-05-25 02:27:00,1878E-3,5C000000,-0724,0851,11953,030.9,045.6,0.483,734.7,01.18,0.508
2014-05-25 02:28:00,1747E-3,5C000000,-0724,0852,12138,030.9,045.6,0.482,734.7,01.18,0.508
2014-05-25 02:29:00,1872E-3,5C000000,-0724,0851,11868,030.9,045.6,0.483,734.7,01.18,0.508
2014-05-25 02:30:00,1861E-3,5C000000,-0724,0851,11918,030.9,045.6,0.483,734.7,01.18,0.508
2014-05-25 02:31:00,1925E-3,5C000000,-0724,0851,11893,030.9,045.6,0.482,734.7,01.18,0.508
2014-05-25 02:32:00,1960E-3,5C000000,-0724,0851,12061,030.9,045.6,0.483,734.8,01.18,0.508
2014-05-25 02:33:00,1834E-3,5C000000,-0724,0851,11958,030.9,045.6,0.483,734.7,01.18,0.508
2014-05-25 02:34:00,1974E-3,5C000000,-0724,0851,12044,030.9,045.6,0.482,734.7,01.18,0.508
2014-05-25 02:35:00,1852E-3,5C000000,-0724,0851,12000,030.9,045.6,0.483,734.8,01.18,0.508
2014-05-25 02:36:00,1777E-3,5C000000,-0724,0851,12055,030.9,045.6,0.483,734.7,01.18,0.508
2014-05-25 02:37:00,1828E-3,5C000000,-0724,0851,11955,030.9,045.6,0.482,734.7,01.18,0.508
2014-05-25 02:38:00,1759E-3,5C000000,-0724,0851,12135,030.9,045.6,0.483,734.7,01.18,0.508
2014-05-25 02:39:00,1783E-3,5C000000,-0724,0851,11953,030.9,045.6,0.482,734.8,01.18,0.508
2014-05-25 02:40:00,1954E-3,5C000000,-0724,0851,12162,031.0,045.6,0.482,734.7,01.18,0.508
2014-05-25 02:41:00,1851E-3,5C000000,-0724,0851,12128,030.9,045.6,0.483,734.8,01.18,0.508
2014-05-25 02:42:00,1738E-3,5C000000,-0724,0851,11737,031.0,045.6,0.482,734.8,01.18,0.508
2014-05-25 02:43:00,1806E-3,5C000000,-0724,0850,11984,031.0,045.6,0.483,734.7,01.18,0.508
2014-05-25 02:44:00,1783E-3,5C000000,-0724,0851,11889,031.0,045.6,0.483,734.8,01.18,0.508
2014-05-25 02:45:00,1832E-3,5C000000,-0724,0851,11960,030.9,045.6,0.482,734.7,01.18,0.508
2014-05-25 02:46:00,1872E-3,5C000000,-0724,0852,11958,031.0,045.6,0.483,734.8,01.18,0.508
2014-05-25 02:47:00,1885E-3,5C000000,-0724,0852,12070,031.0,045.6,0.482,734.8,01.18,0.508
2014-05-25 02:48:00,1894E-3,5C000000,-0724,0851,12047,031.0,045.6,0.482,734.8,01.18,0.508
2014-05-25 02:49:00,1769E-3,5C000000,-0724,0851,11947,031.0,045.6,0.483,734.7,01.18,0.508
2014-05-25 02:50:00,1825E-3,5C000000,-0724,0851,11907,031.0,045.6,0.482,734.8,01.18,0.508
2014-05-25 02:51:00,1792E-3,5C000000,-0724,0852,12042,031.0,045.6,0.482,734.8,01.18,0.508
2014-05-25 02:52:00,1965E-3,5C000000,-0724,0851,11944,031.0,045.6,0.483,734.7,01.18,0.508
2014-05-25 02:53:00,1776E-3,5C000000,-0724,0851,12064,031.0,045.6,0.482,734.8,01.18,0.508
2014-05-25 02:54:00,1897E-3,5C000000,-0724,0852,11879,031.0,045.6,0.483,734.8,01.18,0.508
2014-05-25 02:55:00,1817E-3,5C000000,-0724,0851,11996,031.0,045.6,0.482,734.8,01.18,0.508
2014-05-25 02:56:00,1845E-3,5C000000,-0724,0851,11823,031.0,045.6,0.482,734.8,01.18,0.508
2014-05-25 02:57:00,1917E-3,5C000000,-0724,0850,11905,031.0,045.6,0.483,734.8,01.18,0.508
2014-05-25 02:58:00,1836E-3,5C000000,-0724,0850,12066,031.0,045.6,0.482,734.7,01.18,0.508
2014-05-25 02:59:00,1857E-3,5C000000,-0724,0852,12122,031.0,045.6,0.482,734.7,01.18,0.508
2014-05-25 03:00:00,1819E-3,5C000000,-0724,0851,12068,031.0,045.6,0.483,734.8,01.18,0.508
2014-05-25 03:01:00,1958E-3,5C000000,-0724,0852,12103,031.0,045.6,0.482,734.8,01.18,0.508
2014-05-25 03:02:00,1797E-3,5C000000,-0724,0851,12144,031.0,045.6,0.483,734.8,01.18,0.508
2014-05-25 03:03:00,1820E-3,5C000000,-0724,0850,12111,031.0,045.6,0.482,734.8,01.18,0.508
2014-05-25 03:04:00,1787E-3,5C000000,-0724,0852,12078,031.0,045.6,0.482,734.8,01.18,0.508
2014-05-25 03:05:00,1733E-3,5C000000,-0724,0852,12119,031.0,045.6,0.483,734.8,01.18,0.508
2014-05-25 03:06:00,1898E-3,5C000000,-0724,0851,11890,031.0,045.6,0.482,734.8,01.18,0.508
2014-05-25 03:07:00,1829E-3,5C000000,-0724,0851,11882,031.0,045.6,0.483,734.8,01.18,0.508
2014-05-25 03:08:00,1861E-3,5C000000,-0724,0851,12029,031.1,045.6,0.482,734.9,01.18,0.508
2014-05-25 03:09:00,1858E-3,5C000000,-0724,0851,11856,031.0,045.6,0.482,734.9,01.18,0.508
2014-05-25 03:10:00,1913E-3,5C000000,-0724,0850,12151,031.0,045.6,0.483,735.0,01.18,0.508
2014-05-25 03:11:00,1864E-3,5C000000,-0724,0851,11984,031.0,045.6,0.482,735.0,01.18,0.508
2014-05-25 03:12:00,1811E-3,5C000000,-0724,0851,11872,031.1,045.6,0.483,734.9,01.18,0.508
2014-05-25 03:13:00,1749E-3,5C000000,-0724,0852,12144,031.1,045.6,0.482,734.9,01.18,0.508
2014-05-25 03:14:00,1857E-3,5C000000,-0724,0851,11790,031.1,045.6,0.482,734.9,01.18,0.508
2014-05-25 03:15:00,1942E-3,5C000000,-0724,0852,11881,031.1,045.6,0.482,734.9,01.18,0.508
2014-05-25 03:16:00,1889E-3,5C000000,-0724,0852,12111,031.1,045.6,0.482,734.9,01.18,0.508
2014-05-25 03:17:00,1917E-3,5C000000,-0724,0851,12036,031.1,045.6,0.483,734.9,01.18,0.508
2014-05-25 03:18:00,1774E-3,5C000000,-0724,0852,11944,031.1,045.6,0.482,735.0,01.18,0.508
2014-05-25 03:19:00,1887E-3,5C000000,-0724,0851,11928,031.1,045.6,0.483,735.0,01.18,0.508
2014-05-25 03:20:00,1826E-3,5C000000,-0724,0851,12077,031.1,045.6,0.482,734.9,01.18,0.508
2014-05-25 03:21:00,1826E-3,5C000000,-0724,0851,11871,031.1,045.6,0.482,734.9,01.18,0.508
2014-05-25 03:22:00,1830E-3,5C000000,-0724,0851,11927,031.1,045.6,0.483,735.0,01.18,0.508
2014-05-25 03:23:00,1825E-3,5C000000,-0724,0852,11834,031.1,045.6,0.482,734.9,01.18,0.508
2014-05-25 03:24:00,1782E-3,5C000000,-0724,0852,11903,031.1,045.6,0.483,734.9,01.18,0.508
2014-05-25 03:25:00,1896E-3,5C000000,-0724,0851,11986,031.1,045.6,0.482,734.9,01.18,0.508
2014-05-25 03:26:00,1767E-3,5C000000,-0724,0851,11991,031.1,045.6,0.482,734.9,01.18,0.508
2014-05-25 03:27:00,1815E-3,5C000000,-0724,0851,12029,031.1,045.6,0.482,734.9,01.18,0.508
2014-05-25 03:28:00,1915E-3,5C000000,-0724,0852,12071,031.1,045.6,0.482,735.0,01.18,0.508
2014-05-25 03:29:00,1802E-3,5C000000,-0724,0852,12108,031.1,045.6,0.483,735.0,01.18,0.508
2014-05-25 03:30:00,1843E-3,5C000000,-0724,0852,11948,031.1,045.6,0.482,735.0,01.18,0.508
2014-05-25 03:31:00,1786E-3,5C000000,-0724,0853,11981,031.1,045.6,0.483,735.0,01.18,0.508
2014-05-25 03:32:00,1779E-3,5C000000,-0724,0853,12020,031.1,045.6,0.482,735.0,01.18,0.508
2014-05-25 03:33:00,1858E-3,5C000000,-0724,0851,12012,031.1,045.6,0.482,735.0,01.18,0.508
2014-05-25 03:34:00,1872E-3,5C000000,-0724,0851,11992,031.1,045.6,0.482,735.0,01.18,0.508
2014-05-25 03:35:00,1818E-3,5C000000,-0724,0852,11825,031.1,045.6,0.482,735.0,01.18,0.508
2014-05-25 03:36:00,1773E-3,5C000000,-0724,0851,11975,031.1,045.6,0.483,735.0,01.18,0.508
2014-05-25 03:37:00,1958E-3,5C000000,-0724,0851,11780,031.1,045.6,0.482,735.0,01.18,0.508
2014-05-25 03:38:00,1916E-3,5C000000,-0724,0851,12097,031.1,045.6,0.483,735.0,01.18,0.508
2014-05-25 03:39:00,1850E-3,5C000000,-0724,0852,11976,031.1,045.6,0.482,735.0,01.18,0.508
2014-05-25 03:40:00,1767E-3,5C000000,-0724,0852,12006,031.1,045.6,0.483,735.0,01.18,0.508
2014-05-25 03:41:00,1754E-3,5C000000,-0724,0852,12023,031.1,045.6,0.482,735.0,01.18,0.508
2014-05-25 03:42:00,1769E-3,5C000000,-0724,0852,11967,031.1,045.6,0.482,735.0,01.18,0.508
2014-05-25 03:43:00,1887E-3,5C000000,-0724,0851,11750,031.1,045.6,0.482,735.0,01.18,0.508
2014-05-25 03:44:00,1807E-3,5C000000,-0724,0851,11820,031.1,045.6,0.482,735.0,01.18,0.508
2014-05-25 03:45:00,1667E-3,5C000000,-0724,0851,12057,031.1,045.6,0.483,735.1,01.18,0.508
2014-05-25 03:46:00,1770E-3,5C000000,-0724,0850,11812,031.1,045.6,0.482,735.1,01.18,0.508
2014-05-25 03:47:00,1855E-3,5C000000,-0724,0851,12025,031.1,045.6,0.483,735.1,01.18,0.508
2014-05-25 03:48:00,1813E-3,5C000000,-0724,0851,12071,031.1,045.6,0.482,735.1,01.18,0.508
2014-05-25 03:49:00,1930E-3,5C000000,-0724,0851,11932,031.1,045.6,0.483,735.1,01.18,0.508
2014-05-25 03:50:00,1830E-3,5C000000,-0724,0852,12095,031.1,045.6,0.482,735.1,01.18,0.508
2014-05-25 03:51:00,1833E-3,5C000000,-0724,0852,11890,031.1,045.6,0.483,735.1,01.18,0.508
2014-05-25 03:52:00,1870E-3,5C000000,-0724,0851,12178,031.1,045.6,0.482,735.1,01.18,0.508
2014-05-25 03:53:00,1674E-3,5C000000,-0724,0851,11849,031.1,045.6,0.482,735.0,01.18,0.508
2014-05-25 03:54:00,1782E-3,5C000000,-0724,0851,11981,031.2,045.6,0.482,735.1,01.18,0.508
2014-05-25 03:55:00,1798E-3,5C000000,-0724,0851,11757,031.2,045.6,0.482,735.0,01.18,0.508
2014-05-25 03:56:00,1840E-3,5C000000,-0724,0851,12031,031.2,045.6,0.483,735.1,01.18,0.508
2014-05-25 03:57:00,1802E-3,5C000000,-0724,0851,11961,031.2,045.6,0.482,735.1,01.18,0.508
2014-05-25 03:58:00,1812E-3,5C000000,-0724,0850,12056,031.1,045.6,0.483,735.1,01.18,0.508
2014-05-25 03:59:00,1772E-3,5C000000,-0724,0852,12026,031.2,045.6,0.482,735.1,01.18,0.508
2014-05-25 04:00:00,1865E-3,5C000000,-0724,0851,12010,031.2,045.6,0.483,735.1,01.18,0.508
2014-05-25 04:01:00,1858E-3,5C000000,-0724,0851,11862,031.2,045.6,0.482,735.1,01.18,0.508
2014-05-25 04:02:00,1851E-3,5C000000,-0724,0851,12068,031.2,045.6,0.482,735.1,01.18,0.508
2014-05-25 04:03:00,1864E-3,5C000000,-0724,0853,12027,031.2,045.6,0.482,735.0,01.18,0.508
2014-05-25 04:04:00,1821E-3,5C000000,-0724,0851,11936,031.2,045.6,0.482,735.1,01.18,0.508
2014-05-25 04:05:00,1901E-3,5C000000,-0724,0851,12015,031.2,045.6,0.483,735.0,01.18,0.508
2014-05-25 04:06:00,1875E-3,5C000000,-0724,0851,12001,031.2,045.6,0.482,735.1,01.18,0.508
2014-05-25 04:07:00,1836E-3,5C000000,-0724,0851,11871,031.2,045.6,0.483,735.1,01.18,0.508
2014-05-25 04:08:00,1843E-3,5C000000,-0724,0851,11959,031.2,045.6,0.482,735.1,01.18,0.508
2014-05-25 04:09:00,1891E-3,5C000000,-0724,0851,12068,031.2,045.6,0.483,735.1,01.18,0.508
2014-05-25 04:10:00,1937E-3,5C000000,-0724,0851,11716,031.2,045.6,0.482,735.1,01.18,0.508
2014-05-25 04:11:00,1956E-3,5C000000,-0724,0851,12051,031.2,045.6,0.482,735.1,01.18,0.508
2014-05-25 04:12:00,1847E-3,5C000000,-0724,0851,11861,031.2,045.6,0.482,735.1,01.18,0.508
2014-05-25 04:13:00,1782E-3,5C000000,-0724,0851,11802,031.2,045.6,0.482,735.1,01.18,0.508
2014-05-25 04:14:00,1854E-3,5C000000,-0724,0850,11951,031.2,045.6,0.482,735.1,01.18,0.508
2014-05-25 04:15:00,1804E-3,5C000000,-0724,0851,11879,031.2,045.6,0.482,735.1,01.18,0.508
2014-05-25 04:16:00,1851E-3,5C000000,-0724,0852,11744,031.2,045.6,0.482,735.1,01.18,0.508
2014-05-25 04:17:00,1824E-3,5C000000,-0724,0852,12028,031.2,045.6,0.482,735.1,01.18,0.508
2014-05-25 04:18:00,1854E-3,5C000000,-0724,0851,12097,031.2,045.6,0.482,735.1,01.18,0.508
2014-05-25 04:19:00,1845E-3,5C000000,-0724,0852,11888,031.2,045.6,0.482,735.2,01.18,0.508
2014-05-25 04:20:00,1802E-3,5C000000,-0724,0851,12111,031.2,045.6,0.482,735.1,01.18,0.508